Location: Recife
(8.0585°S, 34.8848°W)
Time: 20:23:31
(UTC-03:00)

A-11 Canister half - Pass Details

Date: 19 April 2026
Orbit: 1515 x 1684 km, 47.2° (Epoch: 16 May)

Event Time Altitude Azimuth Distance (km) Brightness Sun altitude
Rises 02:21:52 0° 254° (WSW) 4,694 - -44.8°
Reaches altitude 10° 02:26:28 10° 273° (W) 3,687 - -43.7°
Maximum altitude 02:31:45 16° 309° (NW) 3,180 - -42.4°
Drops below altitude 10° 02:37:02 10° 345° (NNW) 3,661 - -41.1°
Exits shadow 02:37:56 - 350° (N) 3,825 11.0 -40.9°
Sets 02:41:39 0° 5° (N) 4,645 11.7 -39.9°
